Regional Weather Roundup
Issued by NWS

Home | Current Version | Previous Version | Text Only | Print | Product List | Glossary Off
Versions: 1 2 3 4 5 6 7 8 9 10 11 12 13 14 15 16 17 18 19 20 21 22 23 24 25 26 27 28 29 30 31 32 33 34 35 36 37 38 39 40 41 42 43 44 45 46 47 48 49 50

000
ASUS43 KIND 231259
RWRIN

WEATHER ROUNDUP FOR INDIANA
NATIONAL WEATHER SERVICE INDIANAPOLIS IN
800 AM EST TUE JAN 23 2018

NOTE: "FAIR" INDICATES FEW OR NO CLOUDS BELOW 12,000 FEET WITH NO
SIGNIFICANT WEATHER AND/OR OBSTRUCTIONS TO VISIBILITY.

* - STATION DOES NOT REPORT WEATHER SUCH AS PRECIPITATION OR FOG.

+ - STATION NOT QUALITY CONTROLLED BY THE NATIONAL WEATHER SERVICE.
    USE DATA WITH CAUTION...ESPECIALLY DEWPOINT AND RELATIVE
    HUMIDITY OBSERVATIONS.

INZ001>003-010>013-019-020-231400-
NORTHWEST INDIANA

CITY           SKY/WX    TMP DP  RH WIND       PRES   REMARKS
GARY /AIRPORT/ LGT SNOW  34  32  93 W17       29.65R FOG     WCI  23
KNOX *+        CLOUDY    34  34 100 SW14      29.62R WCI  24
MICHIGAN CITY+ LGT SNOW  32  32 100 W10G17    29.64R VSB 1   WCI  24
MONTICELLO +   CLOUDY    34  33  96 SW12      29.67R WCI  25
RENSSELAER +   LGT RAIN  34  32  93 SW13      29.66R WCI  25
VALPARAISO     LGT SNOW  34  34 100 MISG      29.63R FOG

$$

LMZ046-743>745-231400-
SOUTHERN LAKE MICHIGAN

STATION/POSITION TIME  TEMP    WIND        PRES    WAVE
                       AIR SEA DIR/SP/G            HT
                 (UTC) (F)     (DEG/KT/KT) (MB)    (FT)
BURNS HARBOR     1240   33     290/ 17/ 22 1003.7R
MICHIGAN CITY    1230   32     240/ 20/ 22   N/A

$$

INZ004-005-014>016-021>024-231400-
NORTH CENTRAL INDIANA

CITY           SKY/WX    TMP DP  RH WIND       PRES   REMARKS
ELKHART        LGT RAIN  36  32  87 SW9G18    29.58S WCI  29
GOSHEN         CLOUDY    36  33  89 SW13      29.59R WCI  27
PERU/GRISSOM   CLOUDY    36  36 100 W15       29.66R WCI  26
SOUTH BEND     LGT RAIN  34  32  92 SW15      29.59R FOG     WCI  24

$$

INZ006>009-017-018-025>027-231400-
NORTHEAST INDIANA

CITY           SKY/WX    TMP DP  RH WIND       PRES   REMARKS
FORT WAYNE     LGT RAIN  37  34  89 SW14      29.64R WCI  28
KENDALLVILLE + LGT RAIN  35  34  96 SW12      29.59R WCI  26

$$

INZ028-029-035-036-043>045-051>053-231400-
WEST CENTRAL INDIANA

CITY           SKY/WX    TMP DP  RH WIND       PRES   REMARKS
CRAWFORDSVL +  CLOUDY    32  32 100 MISG      29.73R
GREENCASTLE +  CLOUDY    32  32 100 SW7       29.74R WCI  26
LAFAYETTE      CLOUDY    34  32  92 W9G18     29.70R WCI  27
TERRE HAUTE    CLOUDY    34  32  92 W12       29.77R WCI  25

$$

INZ030>032-037>040-046>048-054>057-064-065-231400-
CENTRAL INDIANA

CITY           SKY/WX    TMP DP  RH WIND       PRES   REMARKS
COLUMBUS       CLOUDY    36  30  80 SW10      29.75R WCI  28
INDIANAPOLIS   CLOUDY    34  31  88 W17       29.73R WCI  23
-EAGLE CREEK   CLOUDY    34  30  85 SW8G16    29.72R WCI  27
MT COMFORT *+  CLOUDY    34  34 100 W18       29.72R WCI  23
SHELBYVILLE    CLOUDY    36  31  82 SW17      29.73R WCI  26

$$

INZ033-034-041-042-049-050-058-059-231400-
EAST CENTRAL INDIANA

CITY           SKY/WX    TMP DP  RH WIND       PRES   REMARKS
MUNCIE         MIX PCPN  36  32  85 W17G25    29.68R WCI  26
RICHMOND +     CLOUDY    34  32  93 W25       29.69R WCI  21

$$

INZ060-061-067>069-081>083-085>088-231400-
SOUTHWEST INDIANA

CITY           SKY/WX    TMP DP  RH WIND       PRES   REMARKS
EVANSVILLE     CLOUDY    38  31  76 W20G29    29.87R WCI  28
HUNTINGBURG +  CLOUDY    38  31  76 W14G25    29.84R WCI  30

$$

INZ062-063-066-070>080-084-089>092-231400-
SOUTH CENTRAL AND SOUTHEAST INDIANA

CITY           SKY/WX    TMP DP  RH WIND       PRES   REMARKS
BLOOMINGTON    CLOUDY    35  32  88 W14G22    29.76R FOG     WCI  26
FRENCH LICK *+ CLOUDY    36  28  75 SW15G23   29.81R WCI  26
SEYMOUR +      CLOUDY    39  32  75 W20       29.78R WCI  30

$$





USA.gov is the U.S. government's official web portal to all federal, state and local government web resources and services.